Wind_Speed
10 11 12 12 13 15 17 19 21 22 24 24 24 23 22 21 20 21 21 21 21 22 23 23 24 24 25 24 24 25 25 25 25 24 24 24 23 24 24 24 24 24 24 24 25 25 26 26 26 26 26 25 25 23 22 22 22 22 22 22 22 22 22 22 23 24 25 25 25 25 24 24 23 23 24 24 25 25 25 25 26 27 28 28 29 29
12 12 13 14 15 16 18 20 20 20 21 21 21 21 21 21 21 22 22 22 22 23 23 24 24 25 25 25 25 25 26 26 25 25 24 24 24 24 24 24 24 24 24 25 25 26 26 26 26 26 25 25 25 24 23 22 22 22 22 22 22 22 22 22 23 24 25 25 25 24 24 23 23 24 24 24 24 25 25 26 26 27 28 28 28 29
12 12 12 13 13 15 16 18 18 18 19 19 20 21 21 22 22 23 23 23 22 23 23 23 24 24 24 25 25 26 26 26 25 24 24 23 23 23 24 24 24 25 25 26 26 26 26 26 25 25 25 24 24 24 24 23 23 23 23 22 22 22 22 23 24 24 25 25 25 24 24 24 24 24 24 24 24 25 25 26 27 27 28 28 28 28
12 12 13 13 14 14 16 17 17 18 19 19 20 21 21 22 22 22 22 22 23 22 22 22 23 23 24 25 25 25 25 25 24 23 22 22 23 23 23 24 25 25 25 26 26 26 25 25 24 24 24 24 24 24 25 25 25 24 23 23 22 22 22 23 24 25 26 26 25 24 24 23 23 23 23 24 24 24 25 26 27 27 28 28 28 28
12 12 13 13 13 14 16 17 19 19 20 20 20 20 20 21 22 22 22 22 23 23 23 22 22 23 23 24 24 24 24 23 22 21 21 22 23 23 24 24 25 25 25 25 25 24 24 24 24 24 24 24 24 25 25 26 25 25 23 23 22 23 23 24 25 26 27 26 25 24 23 22 22 23 23 24 24 25 26 27 27 27 28 28 28 28
13 12 13 13 14 15 17 20 20 21 21 20 20 20 21 21 21 22 22 22 22 22 22 22 21 21 21 22 22 22 21 21 20 20 21 22 23 24 24 25 24 24 24 23 23 24 24 24 24 24 25 25 25 25 26 26 27 26 25 24 24 24 25 25 25 26 26 25 24 23 22 22 23 23 23 24 25 26 26 27 27 27 27 28 28 28
14 14 15 15 16 17 19 21 21 20 20 20 21 21 21 21 21 21 22 22 21 21 21 20 19 19 19 19 20 20 20 21 22 23 24 25 25 25 24 23 22 22 22 22 23 24 24 25 25 26 26 26 26 26 26 27 27 27 26 26 26 26 26 26 26 27 26 25 23 23 22 23 23 24 24 25 26 26 26 26 27 27 27 27 28 27
15 17 18 18 18 19 20 21 20 19 18 19 20 21 21 21 21 21 21 21 20 19 18 18 18 18 18 18 19 20 21 23 25 26 27 26 25 23 22 20 20 20 21 22 23 24 25 25 26 26 27 26 26 26 27 27 27 27 27 27 27 27 27 26 26 26 25 24 23 23 23 23 24 25 25 26 26 26 26 27 27 27 27 27 27 27
17 18 19 19 19 19 19 20 19 18 17 18 19 20 20 21 21 21 20 19 18 17 17 17 18 19 19 19 20 22 24 24 25 25 24 22 21 20 19 19 20 21 22 23 23 24 25 25 26 26 26 26 26 25 26 26 26 26 27 27 27 27 26 26 26 25 24 23 23 23 23 24 25 25 26 26 26 27 27 27 26 26 27 27 27 28
18 19 19 20 20 19 18 19 19 18 17 16 17 18 19 20 21 20 19 18 17 17 16 17 18 19 20 21 21 23 24 24 23 22 20 19 18 19 20 21 22 23 23 23 23 23 24 24 25 25 25 24 24 24 24 25 25 25 26 26 26 26 26 25 25 24 23 23 23 24 24 25 25 26 26 26 27 27 27 27 26 26 26 27 27 27
18 18 18 18 19 18 17 18 18 17 16 16 17 17 18 18 18 18 18 17 17 17 16 16 16 18 20 22 23 22 22 22 21 19 18 18 20 21 23 23 23 22 22 22 22 22 23 23 23 23 23 22 22 22 23 24 24 25 25 25 25 25 25 24 24 23 23 23 24 24 25 25 26 26 26 27 27 27 26 26 26 26 27 27 27 27
17 17 17 17 17 16 16 16 16 16 16 16 17 17 18 17 15 15 15 15 16 16 16 16 16 16 18 21 22 22 20 19 18 18 19 21 24 25 25 24 22 21 21 22 22 23 23 22 22 21 21 21 21 22 23 23 24 25 25 25 25 24 24 24 23 23 23 24 24 25 26 26 26 26 27 26 26 26 26 26 26 27 27 27 27 27
17 17 16 16 16 16 15 15 15 14 15 15 16 16 16 15 14 13 12 13 14 15 16 17 17 17 18 19 20 20 18 17 17 19 21 23 25 26 24 23 22 22 22 23 23 23 23 23 22 21 20 20 21 22 23 24 24 24 24 24 24 24 24 23 23 23 24 24 25 25 26 26 26 26 26 26 26 26 26 27 27 27 27 27 27 27
17 17 16 16 16 16 15 15 14 14 15 16 16 16 15 14 13 13 12 13 14 15 16 17 18 19 19 19 19 18 17 17 19 21 23 24 25 25 23 23 22 22 22 23 23 23 23 22 21 21 21 21 23 24 24 24 24 24 24 24 24 23 23 23 24 24 24 25 25 26 26 26 26 26 26 26 26 27 27 27 27 27 26 26 26 26
17 16 15 15 15 14 14 13 13 14 16 16 16 15 14 13 13 13 13 14 15 15 16 17 19 20 20 19 18 17 17 19 21 22 24 25 25 24 22 22 21 21 20 21 21 22 22 22 21 21 22 23 24 24 24 24 24 24 24 24 24 24 24 24 24 24 25 25 26 26 26 26 26 26 26 26 27 27 27 27 26 26 26 26 26 26
16 15 14 13 13 12 13 13 14 15 15 15 14 14 14 15 15 14 13 13 14 15 16 18 19 20 21 19 17 17 18 21 22 23 23 23 23 21 20 20 20 19 19 19 20 21 22 22 23 23 24 25 25 24 23 24 24 24 24 24 24 24 24 24 24 25 25 25 26 26 26 26 26 26 26 26 26 26 26 26 26 25 25 25 26 26
14 13 12 11 11 12 13 13 14 14 14 14 15 15 15 15 16 16 14 13 14 14 15 15 14 14 16 19 17 16 19 22 24 23 21 20 20 19 18 18 18 18 18 18 19 21 23 23 24 25 26 26 25 24 24 24 24 23 23 23 23 24 24 24 25 25 25 25 25 26 26 26 26 26 26 26 26 26 25 25 25 25 25 25 25 26
12 11 11 11 11 12 14 14 14 14 15 15 16 16 16 15 15 15 14 13 13 14 14 15 14 12 11 14 16 18 21 23 23 21 18 17 17 17 17 17 17 17 17 19 20 22 23 24 25 26 26 25 24 24 24 24 24 23 23 23 23 24 24 24 24 25 25 25 25 25 25 25 25 25 25 25 25 25 25 25 25 25 25 25 25 26
12 12 12 12 12 13 13 14 15 16 16 16 16 16 16 15 14 14 13 13 13 14 14 14 14 13 12 12 16 21 23 23 22 19 17 16 17 17 17 18 18 18 19 21 23 24 24 25 26 26 27 26 25 24 24 24 24 23 23 23 23 24 24 24 24 25 25 25 25 25 25 25 25 25 25 24 24 24 24 24 24 25 25 25 25 25
13 13 13 13 13 13 13 13 14 15 16 16 16 15 14 14 14 13 13 13 12 12 12 12 12 12 12 14 18 22 23 22 20 17 15 16 17 17 18 19 20 21 21 23 24 24 24 25 27 28 28 27 25 24 24 24 24 23 23 23 23 24 24 24 25 25 25 25 25 25 24 24 24 24 24 24 24 24 24 24 24 24 25 25 25 25
13 13 14 14 14 13 12 14 15 16 17 17 16 15 13 13 13 13 13 13 12 12 12 12 11 12 14 17 19 21 21 20 18 16 15 15 16 17 18 19 21 22 22 22 23 24 24 26 28 28 28 26 24 24 24 24 23 23 23 23 24 24 24 25 25 24 24 24 24 24 24 24 24 24 24 24 24 24 24 24 24 24 24 24 25 25
14 14 16 16 16 15 14 16 16 17 17 17 16 14 13 13 13 13 12 12 12 12 12 12 13 15 16 17 19 19 18 18 18 17 15 13 14 16 18 20 21 20 20 21 22 24 26 27 28 28 27 25 24 23 23 23 23 23 23 23 24 24 24 24 24 24 24 24 24 24 24 24 24 24 24 24 24 24 24 24 24 24 24 24 25 25
15 16 16 16 16 16 16 16 16 16 16 15 14 13 13 14 14 13 12 12 13 13 14 15 16 17 17 17 17 17 16 16 17 17 14 11 12 16 19 20 20 19 19 20 22 25 27 27 27 26 26 24 23 22 22 22 22 23 23 24 24 24 24 24 23 23 23 23 23 24 24 24 24 24 24 24 24 24 24 24 24 24 24 24 25 25
15 15 15 15 15 15 15 15 15 15 15 14 13 12 13 13 14 14 14 15 16 17 18 19 19 18 17 17 16 16 15 16 17 17 14 11 12 16 19 20 20 19 20 21 22 24 26 26 25 25 24 24 23 22 22 22 22 23 23 24 24 24 24 23 23 23 23 23 23 24 24 24 24 24 24 24 24 24 24 24 24 24 24 24 24 25
14 14 15 15 15 14 14 13 13 14 14 14 14 14 14 15 15 16 16 17 18 20 20 19 17 16 16 16 16 15 15 15 16 17 16 13 14 17 19 19 19 19 21 22 23 24 24 24 24 24 23 23 23 22 22 22 23 23 24 24 24 23 23 23 23 23 23 23 24 24 24 24 24 24 24 24 24 24 23 23 23 23 23 24 24 23
13 13 14 14 14 14 13 13 13 13 13 14 15 16 17 17 18 18 18 18 19 19 18 16 14 14 14 14 14 15 15 15 16 18 19 16 15 17 18 19 19 19 20 23 23 23 23 22 22 22 22 23 23 23 22 22 23 23 24 24 23 23 23 23 23 24 24 24 24 24 24 24 24 24 24 24 23 23 23 23 22 23 23 23 23 22
12 12 13 13 14 14 13 13 14 14 14 14 15 16 17 18 18 18 16 16 17 16 14 12 11 11 13 12 13 14 15 14 15 18 20 18 16 16 18 19 19 19 20 22 23 23 21 21 21 21 21 22 23 23 23 23 23 23 23 23 23 23 23 24 24 24 24 24 24 24 24 24 24 24 24 23 23 22 22 22 22 22 22 22 22 22
12 12 13 13 14 14 14 14 14 14 15 15 15 16 17 18 17 15 13 14 14 14 12 10 9 9 10 11 13 14 14 13 15 18 20 18 16 15 17 19 19 19 19 21 23 23 21 19 19 19 21 22 23 23 23 23 23 23 22 23 23 23 23 24 24 24 24 24 24 24 24 24 24 24 24 23 22 22 21 22 22 22 21 21 22 22
12 12 12 13 14 15 15 15 15 15 15 15 15 15 16 16 15 13 13 13 13 12 10 10 9 9 10 12 13 14 13 13 15 19 21 18 15 15 18 19 18 18 19 21 24 24 21 19 18 18 20 22 23 23 24 24 24 24 24 24 24 24 23 24 24 24 24 24 24 24 24 24 24 24 24 23 22 22 22 22 22 21 21 21 21 21
13 12 12 13 14 15 15 16 16 16 15 15 14 14 14 14 13 13 12 13 12 12 11 10 10 10 11 12 11 11 10 13 17 19 21 17 16 17 19 19 18 18 18 19 18 17 18 20 19 19 21 22 23 23 24 24 24 25 25 26 26 25 24 24 24 24 24 24 24 24 24 24 24 24 24 23 23 23 22 22 21 21 22 22 22 22
14 14 13 13 13 14 15 15 15 15 14 13 13 13 13 13 13 12 12 11 12 12 11 10 10 10 11 9 7 5 6 13 19 21 22 18 16 17 18 17 17 17 18 16 10 7 11 17 22 23 23 23 23 23 23 22 23 24 25 27 27 26 25 24 24 24 24 24 23 23 24 24 24 24 24 24 24 24 23 22 22 21 22 23 23 22
14 14 13 13 13 14 14 15 15 14 14 13 13 13 13 13 12 12 11 11 11 12 12 11 11 10 10 9 7 5 8 14 19 22 22 19 17 17 18 16 16 17 18 16 13 8 6 10 19 26 26 24 23 23 22 21 22 23 24 25 26 26 26 25 24 24 24 24 24 23 24 24 24 24 24 24 24 24 24 23 23 22 22 22 23 23
15 14 13 13 14 14 15 15 15 15 15 15 15 14 13 13 12 12 12 11 11 12 12 12 11 11 11 10 10 9 12 17 21 23 22 20 17 17 18 17 17 18 19 18 17 14 11 12 18 24 25 24 23 22 22 21 21 22 24 25 25 26 26 26 25 24 24 24 24 24 24 24 24 24 24 24 24 24 25 24 24 22 22 21 22 22
15 15 15 15 15 15 15 16 16 17 17 18 17 15 13 12 12 12 11 11 10 11 12 13 13 12 12 11 11 12 14 19 22 22 21 20 18 17 17 17 17 18 19 19 18 18 16 17 19 20 22 23 23 22 21 21 22 23 24 24 24 25 26 26 25 25 24 24 24 25 25 25 25 25 24 24 25 25 25 25 24 22 21 21 21 21
16 16 16 16 16 17 17 17 18 18 19 19 17 15 12 12 12 11 11 11 11 11 11 12 13 13 14 13 12 13 17 20 22 21 20 19 18 17 17 16 17 17 18 18 18 17 17 18 19 19 19 21 22 21 21 21 22 23 24 23 23 23 24 25 25 25 25 24 24 24 25 25 25 25 25 25 25 25 25 24 23 22 22 21 21 21
16 16 16 17 17 18 18 18 19 19 19 19 16 14 12 11 11 11 11 11 11 11 12 12 12 13 14 15 15 16 18 19 20 20 19 19 18 17 16 16 17 18 17 17 18 17 17 18 19 19 19 18 18 20 21 22 23 23 23 23 23 23 24 24 24 24 24 23 23 23 24 25 25 25 25 25 26 26 25 24 24 23 23 23 22 21
16 16 16 17 18 18 18 19 19 19 19 18 15 13 12 12 12 12 12 11 12 12 12 12 13 13 14 15 16 16 17 18 19 19 20 20 19 18 16 16 17 17 16 16 17 17 17 17 18 18 17 16 16 17 20 23 24 24 23 23 23 23 23 23 23 23 22 22 22 23 24 24 24 25 26 26 27 27 26 25 25 25 25 25 25 24
15 15 16 17 18 19 19 19 19 19 19 16 14 12 12 12 13 13 12 12 12 12 13 13 14 14 15 15 15 16 16 17 18 19 20 21 21 20 18 17 17 17 17 16 16 17 16 16 14 13 14 16 17 18 20 22 23 23 24 24 23 22 22 22 22 22 21 22 23 23 24 24 24 25 25 26 27 27 27 27 26 26 27 27 27 27
15 15 16 17 17 18 19 19 20 20 19 16 14 12 13 13 14 14 14 14 14 14 14 15 16 16 16 16 15 15 16 17 18 19 20 21 20 20 19 18 18 19 18 18 16 16 15 14 13 12 13 15 17 19 20 21 21 22 24 24 24 23 22 22 22 21 21 22 23 24 24 24 24 25 24 24 25 25 25 26 26 26 27 27 27 27
14 15 16 17 17 18 18 19 20 21 20 17 15 13 13 14 15 15 16 16 16 16 16 17 18 18 18 17 16 16 16 17 18 19 20 21 20 20 19 19 19 19 19 18 17 16 15 15 15 15 15 15 16 18 19 20 21 21 23 22 22 22 23 22 22 21 21 22 23 23 24 24 25 25 24 24 24 24 24 24 24 25 25 25 25 25
14 15 16 17 18 19 19 19 19 19 19 17 15 14 14 15 16 17 18 18 19 19 19 20 20 21 20 19 18 18 18 18 19 20 20 21 20 20 19 19 20 20 20 19 17 16 15 15 15 15 16 16 17 18 18 19 20 20 20 20 20 22 23 22 21 21 22 22 23 23 23 24 24 25 25 25 25 24 23 23 24 24 23 23 23 23
14 15 16 18 19 19 20 19 18 18 17 15 14 14 14 15 17 18 19 20 21 21 22 22 22 22 22 21 21 20 19 19 19 20 21 21 21 20 19 19 20 20 20 19 18 17 16 15 15 15 15 16 17 17 18 19 20 20 19 19 21 22 22 20 20 21 22 22 23 23 23 24 24 25 26 26 25 25 24 24 23 22 22 22 23 23
15 16 17 18 18 19 20 19 19 18 17 16 14 13 13 15 16 18 19 20 21 21 22 22 22 22 21 21 22 22 21 20 20 21 22 22 21 20 20 20 20 21 21 20 19 18 18 17 16 16 16 17 17 17 18 19 20 20 19 19 19 19 17 19 21 22 22 22 22 23 23 24 25 25 26 26 26 26 25 25 24 23 23 23 24 24
15 16 17 18 18 19 19 20 20 19 19 17 16 14 13 14 16 17 19 20 20 21 21 22 22 21 20 20 21 22 22 22 22 22 23 22 21 20 20 20 21 21 21 21 20 19 19 19 18 18 17 17 17 17 17 18 19 19 19 19 18 16 16 18 20 22 23 23 23 24 24 25 26 26 26 25 26 26 26 26 26 26 26 25 25 25
17 17 17 18 19 19 18 19 20 20 19 18 16 15 13 14 15 17 18 19 20 21 21 22 22 20 19 19 20 21 22 23 24 24 24 23 22 21 20 21 21 22 22 21 20 19 19 19 19 19 18 17 16 16 16 17 17 18 18 18 17 17 17 18 19 20 21 22 23 24 26 26 26 25 24 24 25 26 26 26 27 27 27 27 26 26
17 18 18 19 19 18 17 18 20 20 20 19 18 16 14 14 15 16 18 19 20 20 21 22 22 20 18 18 19 20 22 23 25 26 26 25 24 22 22 21 22 22 21 21 19 18 18 17 18 18 17 16 15 14 14 15 16 17 18 18 18 18 17 18 18 19 20 21 23 25 27 27 25 23 22 23 24 26 26 27 27 27 27 27 27 27
17 18 18 18 18 18 18 19 19 20 19 19 18 17 15 15 16 17 18 19 20 20 21 22 22 20 18 17 18 19 20 22 24 25 26 26 25 24 23 23 22 22 21 20 19 18 17 15 14 14 15 14 13 13 14 15 16 16 17 18 18 18 18 18 19 20 21 22 23 26 27 27 25 23 22 23 24 25 26 27 28 27 27 27 27 27
17 18 18 18 18 18 18 18 19 19 19 18 17 17 16 16 16 18 19 19 20 21 21 21 21 20 18 18 18 18 20 21 23 24 25 25 25 25 24 24 23 22 21 19 18 17 16 14 12 11 10 11 11 12 14 16 17 17 17 17 18 17 18 19 20 21 22 23 25 26 27 25 23 23 23 22 22 22 24 26 28 28 27 27 27 27
17 18 18 18 18 18 18 18 18 18 18 17 17 17 17 16 17 18 19 19 20 20 20 20 20 19 18 18 18 19 21 22 22 23 23 24 24 24 25 25 24 23 22 20 19 17 16 14 12 10 7 8 10 12 15 16 17 17 17 17 17 17 18 19 20 21 22 24 26 27 26 25 24 23 22 20 19 21 23 25 26 27 27 27 27 27
18 18 18 18 17 17 17 18 18 17 17 17 16 17 18 18 18 18 19 19 20 20 20 20 19 18 17 18 19 20 21 22 23 22 22 23 23 24 24 25 25 25 23 22 21 19 18 16 14 11 8 7 9 12 15 16 17 17 17 17 17 17 18 19 20 21 23 24 25 26 26 25 24 23 21 19 19 20 21 23 25 26 27 28 28 28
17 18 18 18 17 17 17 17 17 17 17 16 16 17 18 19 20 20 21 21 20 20 20 20 19 18 17 18 19 20 21 22 22 22 22 22 23 23 22 23 23 23 23 22 21 20 18 16 14 13 12 10 10 12 14 16 17 17 17 18 18 18 18 19 20 22 23 24 24 25 25 24 23 22 20 19 18 19 20 21 23 25 27 29 29 29
Wind_Direction
276 274 270 267 269 272 274 275 279 285 290 293 297 300 302 303 302 301 300 300 299 298 298 298 299 300 301 302 304 304 303 302 300 298 298 298 299 299 301 302 303 304 306 307 308 308 309 308 308 307 307 305 304 303 303 302 302 301 301 301 301 301 301 300 299 298 296 296 297 299 299 300 302 304 306 307 307 307 307 306 306 306 305 304 304 303
284 285 284 284 284 283 283 285 288 292 296 298 300 301 302 301 299 298 298 298 297 298 298 298 299 300 301 303 304 304 303 302 300 298 297 298 298 299 300 302 303 305 306 307 308 309 309 308 308 307 306 305 304 303 302 301 300 300 300 300 300 301 302 301 300 299 298 299 301 302 302 303 305 306 306 306 306 306 306 306 305 305 304 304 303 302
289 289 288 289 289 288 289 292 295 297 298 299 300 300 300 298 298 298 298 298 299 299 299 300 301 302 303 304 304 305 304 303 301 298 297 298 298 299 300 302 303 305 306 307 308 309 308 308 307 306 305 304 303 302 301 300 298 297 297 297 299 301 302 303 303 302 302 302 303 304 304 304 305 305 305 305 305 305 306 306 305 305 304 304 303 302
288 288 289 290 291 292 292 294 296 297 298 299 300 300 300 299 299 300 301 302 302 302 303 303 304 304 305 305 306 306 306 306 303 300 299 298 299 299 301 302 304 305 307 308 309 309 309 309 308 306 305 303 302 301 300 298 297 296 295 297 300 303 305 306 306 306 305 305 304 304 304 304 304 304 304 304 305 305 306 306 306 305 304 304 303 301
286 288 290 294 295 294 293 293 295 298 301 303 304 305 305 303 303 303 304 305 306 306 307 307 307 307 307 308 309 310 310 309 306 303 301 300 300 300 302 303 305 306 308 309 311 311 311 310 309 308 306 305 304 302 300 298 297 297 297 300 303 307 309 310 310 308 305 305 304 305 304 304 304 304 304 304 305 306 306 306 306 305 304 303 303 302
286 288 291 294 294 293 293 295 298 303 306 308 309 310 309 308 307 307 307 308 309 309 309 309 309 310 311 312 313 313 313 312 309 305 303 302 302 303 304 305 307 309 311 312 313 314 314 313 312 311 309 308 306 304 301 298 297 298 299 303 307 311 313 313 310 307 304 304 305 305 305 305 304 304 305 305 306 306 306 306 305 305 304 303 303 303
286 288 291 292 292 292 294 298 302 306 308 308 309 310 310 310 310 309 310 310 310 310 310 310 311 312 313 315 315 316 315 314 311 308 306 305 305 306 307 308 310 312 314 316 317 317 316 315 313 311 310 308 307 304 301 297 297 299 302 307 311 313 314 313 309 305 304 305 305 306 305 305 305 305 305 305 306 306 305 305 305 304 304 303 304 304
288 290 291 292 292 294 296 300 304 309 310 309 308 308 309 310 310 311 311 311 311 311 311 312 313 314 314 315 315 315 315 314 312 310 308 308 309 309 310 312 315 316 318 319 319 318 316 314 311 309 307 306 306 304 302 300 300 303 307 310 312 313 313 310 306 304 304 305 306 306 306 306 306 306 306 306 306 305 305 304 304 303 303 304 304 304
288 290 291 292 293 294 296 300 305 311 313 312 309 308 308 309 310 310 311 310 310 311 313 314 315 315 315 315 316 317 317 315 313 311 311 312 313 314 315 317 318 319 319 319 317 315 313 311 309 307 306 305 306 306 306 306 307 309 311 312 313 313 311 307 305 304 305 306 307 307 307 306 306 306 306 306 306 305 304 304 304 304 304 304 304 303
288 289 290 292 294 295 295 297 303 310 314 313 311 309 309 309 310 311 310 309 309 310 312 314 316 318 318 319 320 321 320 317 314 312 312 313 317 320 321 321 321 320 319 317 315 313 311 310 309 308 308 308 309 310 311 313 314 314 313 313 313 311 309 306 305 306 307 308 308 308 307 308 308 307 307 307 306 306 305 305 305 305 305 304 304 303
290 290 291 293 296 298 296 295 300 307 311 311 311 310 309 309 309 310 311 310 311 312 313 314 317 319 321 322 323 323 321 318 315 314 316 320 324 327 327 325 323 321 319 317 315 313 312 312 312 311 311 312 313 313 314 315 315 314 313 312 311 310 309 308 308 309 310 309 309 309 309 309 309 308 308 308 307 307 307 307 306 306 305 305 304 303
289 291 292 294 296 296 294 294 298 304 309 311 311 311 309 307 306 306 307 308 311 313 315 316 318 320 323 324 324 324 322 319 319 322 327 330 332 332 330 327 324 322 320 320 319 318 316 315 314 313 312 313 313 313 313 313 312 311 311 310 310 311 311 312 312 312 312 311 311 310 310 310 310 310 309 309 309 309 308 308 307 307 305 304 303 302
290 291 292 292 292 291 290 292 297 303 309 311 310 307 306 305 305 306 307 306 308 312 315 318 320 322 324 325 325 324 323 324 327 331 333 333 332 331 328 324 321 321 322 323 322 320 318 315 313 310 310 311 312 313 313 312 311 311 310 310 311 313 314 314 314 313 313 312 312 311 311 311 311 311 311 311 311 310 310 309 307 306 305 303 302 302
292 292 290 288 286 286 286 289 294 301 308 310 308 305 303 305 310 314 313 310 310 314 319 320 322 323 325 326 325 323 324 329 333 333 331 329 327 326 323 320 318 320 322 322 321 319 318 314 312 311 312 314 315 315 315 315 314 312 312 313 314 315 315 315 314 314 314 313 313 313 313 313 313 313 313 312 312 311 310 309 307 306 304 304 303 302
293 291 287 284 283 283 284 289 295 302 308 311 310 309 310 315 319 321 319 315 316 322 326 326 324 323 323 324 324 323 325 331 333 331 326 324 324 324 322 318 316 318 321 321 320 320 320 318 317 317 318 318 318 318 317 316 315 315 315 316 316 316 316 316 316 316 315 315 315 315 315 315 315 315 315 314 313 312 310 308 307 306 305 304 304 303
292 289 286 285 285 287 292 299 304 308 314 318 321 324 327 326 326 326 324 321 324 329 331 329 326 323 322 322 323 324 328 333 332 328 324 321 323 325 324 319 316 317 320 321 322 322 323 323 323 322 322 321 319 318 317 317 317 317 317 318 318 318 318 318 318 318 318 318 318 318 318 318 317 317 316 316 314 312 310 308 307 306 306 305 305 304
293 292 292 293 297 304 312 317 320 324 329 333 336 337 335 332 331 330 328 328 331 332 331 330 327 323 321 322 325 330 335 336 333 328 323 320 322 326 328 324 322 322 324 324 323 324 325 325 325 324 323 322 321 320 319 319 319 319 319 319 319 319 319 319 320 320 320 321 321 321 321 320 320 319 317 316 314 312 310 309 308 308 307 306 305 305
306 311 314 317 321 327 333 337 341 344 344 343 341 339 337 335 333 331 330 332 333 332 330 327 324 321 320 322 327 332 337 337 334 328 324 321 323 327 330 330 330 329 327 325 324 324 325 325 325 325 324 323 322 321 321 321 322 322 322 321 321 321 321 321 321 321 322 322 322 322 322 321 320 318 316 315 314 312 311 311 310 309 308 307 307 306
335 340 344 344 344 345 348 351 351 349 344 340 337 334 332 332 332 333 333 333 332 330 328 325 325 325 326 327 328 331 336 337 335 330 326 323 324 327 331 333 333 331 328 325 325 326 326 326 326 325 325 324 324 323 323 323 324 324 323 323 323 322 323 323 323 324 324 323 322 322 321 320 318 317 317 316 315 314 313 313 312 311 310 309 308 307
357 1 4 1 355 352 350 350 348 344 339 334 332 330 328 331 334 337 337 336 335 334 334 333 334 334 333 327 326 330 336 338 336 332 327 324 324 326 331 334 334 331 327 326 327 329 328 327 325 325 326 326 325 325 324 325 326 325 325 325 324 325 325 326 326 325 325 325 323 322 321 320 319 319 319 318 317 317 316 315 314 313 312 311 310 309
12 11 9 5 358 351 343 341 341 341 340 337 335 333 334 339 343 344 345 345 344 345 345 342 338 334 331 325 325 331 338 339 338 335 328 323 323 327 332 334 334 331 328 327 329 329 327 325 324 324 325 326 325 325 325 326 327 327 326 327 327 327 327 327 327 326 325 324 323 322 321 321 321 321 321 320 320 319 318 318 317 316 315 314 313 311
11 5 1 1 358 350 342 341 344 346 347 346 346 349 354 358 358 356 357 359 357 353 349 343 336 331 329 327 330 335 341 338 337 336 329 323 323 328 334 336 335 332 329 328 329 328 326 325 324 324 325 326 325 325 326 327 328 328 328 328 329 329 328 327 327 326 325 324 323 323 323 323 323 323 323 322 321 321 320 319 319 318 316 315 313 312
5 1 358 358 356 352 348 348 350 353 355 355 0 8 11 12 11 8 6 6 2 355 347 340 335 333 333 333 336 339 342 339 337 336 335 326 326 331 336 339 338 334 330 329 328 327 326 325 324 324 326 327 326 327 328 329 329 329 329 330 330 329 328 328 327 326 326 325 325 325 325 325 324 324 323 323 323 322 321 320 319 319 317 315 314 313
2 360 358 358 356 354 353 354 356 359 360 360 1 4 7 8 7 3 359 356 353 349 344 340 338 337 337 338 340 341 343 340 340 343 347 338 331 334 338 341 340 336 331 330 329 327 326 324 324 325 326 328 328 329 330 331 331 331 331 330 330 330 329 329 328 328 327 327 327 326 326 326 326 325 325 325 324 323 322 321 320 319 317 316 315 313
1 0 360 360 0 1 1 1 3 4 3 2 2 3 3 360 355 350 347 347 347 346 345 344 342 340 339 340 340 341 342 340 343 350 356 345 334 333 337 340 340 335 331 330 329 328 326 324 324 325 327 329 331 332 332 332 332 331 331 331 331 331 331 331 331 330 329 329 329 328 328 327 327 327 326 326 325 324 323 322 320 319 318 317 316 315
1 2 3 5 7 9 11 9 9 8 3 3 3 3 360 355 351 349 349 350 349 349 349 346 342 339 339 339 339 338 337 336 343 351 355 347 336 331 333 337 337 333 329 330 330 329 327 324 324 325 328 331 332 333 333 332 332 332 332 333 333 333 333 333 332 332 332 331 331 330 330 329 329 328 328 327 326 325 324 323 322 321 320 319 318 317
3 6 8 9 11 12 12 15 15 12 7 3 2 0 357 354 355 357 356 353 351 350 349 345 340 338 338 338 336 334 332 334 341 348 349 345 336 329 330 332 332 331 329 329 330 329 327 325 324 326 330 332 333 332 332 332 332 333 333 334 334 335 335 335 334 334 334 333 333 332 331 331 330 330 329 328 328 327 326 325 325 324 324 323 323 322
6 8 10 10 10 10 9 9 9 8 6 3 0 358 356 358 2 3 358 352 351 350 348 343 339 335 333 331 329 329 331 334 340 343 341 340 334 327 327 328 330 331 331 330 329 328 327 326 326 329 332 333 333 332 332 332 333 334 334 335 336 336 336 336 336 336 335 335 334 333 333 332 331 331 330 330 330 329 329 329 328 328 328 328 327 326
3 4 4 5 5 5 3 1 0 360 359 359 359 0 2 5 6 3 355 352 351 349 345 342 338 333 327 324 324 327 333 338 340 338 337 335 330 325 325 326 329 332 334 333 331 330 329 329 331 333 334 334 332 331 332 332 334 335 336 337 337 338 338 337 337 337 335 335 334 334 333 332 331 331 331 332 332 332 332 332 332 332 332 331 329 328
359 358 357 358 358 357 356 355 354 355 357 0 4 7 8 8 5 0 354 353 353 350 344 341 336 332 329 326 327 330 336 338 337 337 337 333 327 324 324 325 328 334 339 338 335 332 330 330 331 334 334 333 331 331 331 332 333 335 336 337 338 339 339 338 337 336 335 334 334 334 333 332 332 332 333 333 332 332 333 334 335 335 335 334 331 329
2 0 358 355 353 352 352 352 353 356 2 8 12 12 10 7 4 0 357 357 356 352 345 339 334 333 333 333 333 333 331 331 334 338 338 332 325 323 324 324 328 334 341 343 340 329 326 327 329 331 332 332 331 330 331 332 333 334 335 336 337 338 338 338 337 336 336 335 335 335 334 333 333 333 334 333 332 333 335 337 338 338 337 335 333 330
7 7 3 358 356 356 356 357 358 2 7 9 8 7 6 6 5 3 2 1 358 353 346 338 333 331 333 332 329 322 319 323 332 338 338 332 326 324 325 325 328 333 338 340 336 326 318 321 324 326 328 329 329 329 329 330 332 333 334 335 335 336 337 338 337 336 335 334 334 334 335 334 335 335 335 335 335 336 336 338 339 339 337 336 333 331
13 12 10 5 4 3 3 1 2 3 2 358 356 358 5 8 7 6 6 5 1 354 347 340 334 330 329 326 323 319 318 324 334 340 340 334 329 326 328 328 329 332 335 335 332 326 319 316 319 322 324 325 326 326 328 330 331 333 334 333 333 334 336 338 337 336 335 334 334 335 335 336 337 337 336 337 337 338 338 338 338 339 338 336 333 331
16 15 14 11 9 7 6 3 360 357 354 351 353 360 9 10 9 8 8 6 2 354 347 344 339 333 328 324 322 321 323 330 341 347 345 338 333 329 329 330 332 334 334 333 331 328 323 320 320 321 322 322 323 324 326 329 331 332 332 333 332 333 335 337 337 336 335 335 335 335 336 337 338 338 338 338 338 339 339 339 340 341 340 337 334 331
16 15 14 11 8 5 2 359 355 351 349 350 355 5 13 12 10 9 8 5 360 354 349 347 344 340 333 324 320 320 324 336 347 354 352 346 340 335 332 332 335 336 335 332 331 329 326 324 323 322 321 321 322 323 325 328 330 331 332 333 333 332 333 335 335 335 335 335 335 336 336 337 338 338 338 338 338 339 339 340 342 344 343 341 338 334
13 11 10 9 5 360 356 354 351 347 346 351 359 9 14 13 11 9 7 3 359 356 354 353 351 348 343 335 327 324 328 342 352 358 358 355 350 344 338 335 336 337 335 332 331 329 326 323 322 322 322 321 321 322 324 327 329 330 332 333 333 333 333 335 336 335 335 335 335 335 336 337 337 337 337 337 338 340 342 344 347 348 347 346 344 340
11 8 5 4 0 356 351 349 346 344 344 351 2 11 13 12 11 8 5 2 359 358 357 356 354 352 351 348 343 341 344 351 357 358 357 355 353 350 344 338 336 337 336 333 330 328 325 323 322 323 323 322 320 321 322 325 328 330 330 331 332 332 333 335 336 336 335 335 334 334 336 336 336 336 337 338 340 343 346 349 351 352 351 350 349 347
11 6 2 359 357 354 349 346 343 341 344 353 4 11 11 12 11 9 5 2 1 360 358 356 355 355 356 355 355 355 355 356 356 354 351 350 350 350 347 342 339 338 337 333 329 327 324 323 322 323 322 320 318 318 319 322 325 326 327 328 329 331 333 335 337 337 336 335 335 335 336 336 336 337 337 339 341 343 345 348 350 351 351 351 351 350
8 4 0 357 354 352 348 344 342 343 348 359 9 13 12 11 11 9 7 5 4 3 1 359 358 357 357 358 358 358 356 353 350 348 347 348 349 349 348 344 341 339 337 334 331 327 323 320 319 318 318 317 316 317 319 321 322 323 325 327 330 332 334 335 336 337 336 336 336 336 336 337 338 337 337 338 339 339 340 341 343 345 346 345 345 347
7 2 358 355 353 351 349 347 347 350 356 6 13 15 12 12 11 9 7 6 6 5 3 1 358 357 356 357 357 356 353 351 349 348 349 351 351 351 349 346 342 339 337 334 332 328 324 319 315 313 312 312 312 314 317 318 320 323 326 328 329 329 330 333 335 336 337 337 337 336 336 337 338 337 337 336 336 336 335 334 335 338 340 339 338 338
4 1 356 353 353 353 352 352 354 359 5 12 15 15 13 12 10 7 6 5 5 5 4 1 357 355 354 355 355 355 354 353 352 352 352 353 353 353 351 347 344 340 337 334 331 329 325 319 315 312 311 310 310 311 312 314 317 321 325 325 324 323 325 329 333 336 337 337 337 337 337 336 337 337 337 335 335 334 334 333 333 335 338 339 338 336
1 356 353 352 352 353 354 357 0 5 10 15 16 15 14 12 9 7 5 4 4 3 2 359 356 354 353 353 354 356 356 355 354 354 354 355 355 354 352 348 345 341 338 334 332 329 325 320 314 310 308 309 309 310 310 312 316 320 322 321 321 323 325 330 334 336 336 335 335 336 336 336 336 335 334 334 334 335 337 337 336 336 337 339 341 342
358 354 352 351 352 353 356 358 0 4 8 11 13 14 15 13 10 7 5 4 4 3 0 358 356 354 352 351 351 353 354 354 354 354 355 356 356 355 352 348 344 341 339 336 333 329 326 321 315 310 307 308 307 306 306 310 315 319 322 324 325 327 328 330 331 333 334 334 334 335 336 335 334 333 333 334 335 337 340 341 342 341 342 342 343 343
356 354 354 353 354 356 357 357 359 1 4 5 7 12 16 15 11 8 6 5 4 2 0 358 357 356 354 352 350 349 350 351 352 353 355 357 357 355 352 347 344 342 340 337 333 329 325 322 318 316 315 313 309 306 305 309 314 319 324 328 329 327 324 324 327 330 332 333 334 335 335 335 334 333 333 335 337 340 341 343 344 346 347 347 345 343
359 356 354 353 354 355 356 356 357 360 2 4 7 13 17 17 13 10 8 6 5 3 1 0 0 359 356 352 350 349 348 349 349 351 352 355 356 355 352 348 345 343 341 340 336 331 326 320 318 320 322 319 315 310 308 312 316 322 326 330 330 328 324 324 327 329 329 330 331 333 334 334 333 333 333 334 336 339 341 342 343 344 346 346 345 342
358 355 354 353 353 353 353 354 356 359 2 5 10 16 19 18 15 12 10 8 6 4 2 2 3 2 357 353 351 350 349 348 348 348 350 352 353 353 351 349 347 345 344 342 341 338 332 325 321 321 321 319 317 316 318 322 323 325 328 330 331 330 329 330 331 331 331 329 329 331 334 335 335 333 331 331 332 335 339 341 341 341 342 343 342 341
357 355 354 354 353 352 352 354 357 359 2 5 10 16 21 20 17 13 11 8 6 5 3 3 3 2 359 356 354 352 351 348 347 347 347 348 349 350 349 349 348 347 346 345 345 344 342 338 334 328 320 315 314 319 327 332 332 330 328 330 332 332 332 332 332 333 333 331 330 332 334 335 334 331 329 328 329 331 335 338 340 341 341 341 340 339
357 356 355 354 353 352 353 355 357 359 1 4 9 15 23 23 19 14 11 8 7 6 5 4 3 1 359 357 356 354 352 349 347 347 347 347 347 347 347 347 347 347 348 348 348 348 348 349 349 343 332 322 318 322 329 332 333 332 329 331 332 333 332 331 332 333 334 333 333 334 335 333 330 327 326 325 325 326 329 333 337 340 341 341 339 339
359 357 356 355 354 353 353 354 356 358 359 1 5 13 23 23 19 14 11 8 8 8 7 5 2 360 357 356 355 354 353 351 349 348 349 349 348 347 347 347 347 348 349 350 351 352 352 355 358 359 353 340 332 331 332 332 333 333 333 334 334 333 331 330 331 332 333 334 335 336 336 334 331 328 325 322 320 321 324 329 333 337 340 341 340 340
360 358 357 357 356 354 353 354 354 355 356 358 2 11 19 19 15 11 9 9 9 10 9 7 4 1 358 356 355 354 353 352 351 350 350 350 349 349 348 348 349 349 349 351 353 354 355 356 359 3 6 358 347 341 337 335 334 336 337 337 336 334 331 330 330 331 333 333 334 335 336 334 334 332 329 324 321 321 323 327 331 335 338 340 341 341
360 359 359 358 357 355 354 353 353 354 355 357 4 12 17 15 12 9 9 10 11 11 9 8 6 4 0 358 356 354 353 353 352 351 350 350 350 350 349 350 351 351 351 351 352 354 354 354 355 356 358 359 356 350 345 340 337 337 338 338 337 335 333 330 330 331 333 333 334 334 334 334 334 333 330 326 324 323 325 327 329 332 336 339 340 340
Height
801 801 801 801 801 801 801 801 801 800 799 799 798 797 796 796 795 794 794 793 793 792 791 791 790 789 788 788 787 786 786 785 784 783 782 782 781 780 779 778 777 776 775 774 773 772 771 770 769 768 767 766 765 764 763 762 761 761 760 759 758 757 756 756 755 754 752 751 750 750 749 749 748 746 746 745 744 744 743 743 742 741 741 740 739 737
801 801 801 801 801 801 800 799 799 799 798 797 796 796 795 795 794 793 793 792 792 791 790 789 789 788 787 786 786 785 784 783 782 782 781 780 779 778 777 776 776 775 774 773 772 771 770 769 767 766 765 764 763 762 761 761 760 759 758 757 756 756 755 754 753 752 750 749 748 747 747 746 745 744 744 744 743 743 742 741 741 740 739 738 736 735
801 801 801 801 800 800 799 798 798 798 797 796 796 795 795 794 793 792 792 791 791 790 789 788 787 786 786 785 784 783 783 782 781 780 779 779 778 777 776 775 774 773 772 771 771 769 768 767 766 765 764 763 762 761 760 759 758 757 756 756 755 754 753 752 751 750 749 747 746 746 746 745 744 744 743 743 742 741 741 740 739 738 737 736 735 733
801 801 800 800 800 799 798 798 797 797 796 796 795 794 794 793 792 791 791 790 789 788 788 787 786 785 784 784 783 782 781 781 780 779 778 777 776 776 775 774 773 772 771 770 769 768 767 766 765 763 762 761 760 759 758 757 756 755 754 753 752 751 751 750 749 748 747 746 746 745 744 743 743 742 742 741 741 740 739 738 737 736 735 734 733 731
801 800 800 799 799 798 797 797 796 796 795 795 794 793 792 792 791 790 789 788 788 787 786 786 785 784 783 782 782 781 780 779 778 778 777 776 775 774 773 772 771 771 770 769 767 766 765 764 763 762 761 760 759 758 757 755 754 753 752 751 751 750 749 748 748 747 746 745 744 743 743 742 741 741 740 740 739 738 737 737 736 735 733 732 731 730
800 800 799 799 798 797 796 796 796 795 794 793 792 792 791 790 790 789 788 787 786 786 785 784 784 783 782 781 781 780 779 778 777 777 776 775 774 773 772 771 770 769 768 767 766 765 764 763 762 761 760 758 757 756 755 754 753 752 751 750 749 748 747 747 746 746 745 744 743 742 741 741 740 740 739 738 737 736 736 735 734 733 731 730 729 728
800 799 799 798 798 797 796 795 794 794 793 792 791 790 790 789 788 787 786 786 785 785 784 783 783 782 781 781 780 779 778 777 776 776 775 774 773 772 771 770 769 768 767 766 765 763 762 761 761 759 758 757 756 755 754 752 751 751 749 748 747 746 746 746 745 744 743 742 741 741 740 739 739 738 737 736 736 735 734 733 732 731 730 728 727 726
799 798 798 798 797 796 795 794 793 793 792 791 790 789 788 787 787 786 786 785 784 784 783 782 781 781 781 780 779 778 777 776 775 774 773 772 771 771 769 768 767 766 765 764 763 762 761 761 760 758 757 756 755 754 752 751 750 749 748 747 746 745 745 744 743 742 741 741 740 739 739 738 737 736 736 735 734 733 732 731 730 729 728 726 726 724
799 798 797 796 796 795 794 792 792 792 792 791 790 789 787 786 785 785 785 784 784 783 782 781 780 780 779 779 778 777 776 775 774 773 772 771 770 769 768 767 766 765 764 763 762 761 761 759 758 757 756 755 753 752 751 750 749 748 747 746 745 744 743 743 742 741 740 739 738 738 737 736 736 735 734 733 732 731 730 729 728 727 726 725 724 723
798 797 796 796 795 795 793 792 791 791 791 790 790 789 788 786 784 783 783 783 782 782 781 781 779 778 777 777 776 776 775 773 773 772 771 770 769 768 767 766 765 764 763 762 761 760 759 758 757 756 754 753 752 751 750 749 748 746 746 745 744 743 742 741 740 739 738 738 737 736 736 735 734 733 732 731 730 729 728 726 726 725 724 723 722 721
797 796 796 795 794 793 793 791 791 790 790 789 789 788 787 786 785 783 782 781 781 781 780 780 779 778 776 775 775 774 773 772 771 770 770 769 768 767 766 765 764 763 762 761 760 759 757 756 756 754 753 752 751 750 749 748 747 746 745 744 743 742 741 740 739 738 737 736 736 735 734 733 732 731 730 729 728 727 726 725 724 723 722 721 720 719
796 796 795 794 793 792 792 791 790 790 789 788 787 786 785 785 785 783 782 781 780 779 778 778 778 777 776 775 773 772 772 771 770 769 768 767 767 766 765 763 762 761 761 760 758 757 756 755 754 753 752 751 750 749 748 747 746 745 744 743 741 740 739 738 737 736 736 735 734 733 732 731 730 729 728 727 726 725 724 723 722 721 720 719 718 717
796 796 795 794 793 792 791 790 789 789 788 787 786 785 784 783 783 782 781 780 780 779 778 777 776 776 776 775 774 772 771 770 769 768 767 766 766 765 763 762 761 760 759 758 757 756 755 754 753 752 751 750 749 748 747 746 745 744 742 741 740 739 738 737 736 735 734 733 733 732 731 730 729 728 726 726 725 723 722 721 721 720 718 717 716 715
795 795 794 793 791 791 790 790 789 788 787 786 786 784 783 782 782 781 780 779 779 778 778 777 776 775 774 774 773 772 771 769 768 767 766 766 765 764 763 761 760 759 758 757 756 755 754 753 752 751 750 749 748 747 746 745 744 742 741 740 739 738 737 736 735 734 733 732 731 730 729 728 727 726 725 724 723 722 721 720 719 718 717 716 715 713
795 794 792 791 791 790 790 789 788 787 786 785 785 784 783 782 781 781 780 779 778 778 777 776 775 774 774 773 772 771 770 769 767 766 765 765 764 763 762 760 759 758 757 756 755 754 753 752 751 750 749 748 747 746 745 744 742 741 740 739 738 737 736 735 734 733 732 731 730 729 728 726 726 724 723 722 721 720 719 718 717 716 715 714 713 711
794 793 792 791 790 789 789 788 788 786 785 785 784 784 783 782 781 780 780 779 778 777 776 775 774 772 772 772 772 771 770 768 767 766 765 763 762 762 761 759 758 757 756 755 754 753 752 751 750 749 748 747 746 745 744 743 741 740 739 738 737 736 735 734 733 732 731 730 729 727 726 725 724 723 722 721 720 719 718 716 715 714 713 712 711 710
793 792 791 791 790 789 789 788 787 787 786 785 784 784 783 782 781 781 780 779 778 777 776 776 774 772 770 770 771 771 770 768 766 765 764 762 761 761 760 759 757 756 755 755 754 753 751 751 749 748 747 746 745 744 742 741 741 739 738 737 736 735 734 733 732 731 730 728 727 726 725 724 723 721 721 720 718 717 716 715 714 712 711 710 709 708
793 792 791 791 790 789 789 788 787 787 786 785 784 783 783 782 781 781 780 779 778 777 776 775 775 773 771 770 769 770 769 768 766 765 763 762 761 760 760 759 757 756 755 754 753 752 751 750 748 747 746 745 744 742 741 740 739 738 737 736 735 734 733 732 731 730 728 727 726 725 724 722 721 720 719 718 717 716 714 713 712 711 710 708 707 706
793 793 792 791 791 790 789 789 788 787 786 785 784 783 782 781 781 780 779 778 778 777 776 775 774 774 773 771 770 769 769 768 766 764 763 761 761 760 759 758 757 756 755 753 752 751 750 749 747 746 745 744 742 741 740 739 738 737 736 735 734 733 732 731 730 728 727 726 725 724 722 721 720 719 718 716 715 714 713 711 710 709 708 706 705 704
793 793 793 792 791 790 790 789 789 788 786 785 784 783 781 781 780 779 779 778 777 777 776 776 775 774 773 772 770 769 768 767 766 764 763 761 760 759 759 758 756 755 754 752 751 750 749 747 746 745 743 742 741 740 739 738 737 736 735 734 733 732 731 730 728 727 726 725 724 722 721 720 719 718 716 715 714 712 711 710 709 707 706 705 703 702
794 794 793 793 792 791 790 789 788 787 786 785 783 782 781 780 780 779 778 778 777 776 776 776 775 774 773 772 770 769 768 767 766 764 763 761 760 759 758 757 756 755 753 752 751 749 748 746 745 744 742 741 741 740 739 738 736 736 734 733 732 731 730 729 727 726 725 724 723 721 720 719 718 716 715 714 712 711 710 708 707 706 705 703 702 701
794 794 793 792 792 791 790 789 788 787 786 785 783 782 781 780 780 779 778 778 777 777 776 776 775 774 773 771 770 769 768 767 766 764 763 761 759 758 758 757 756 754 753 751 750 748 747 746 744 742 741 741 740 739 738 737 736 735 734 732 731 730 729 728 726 725 724 723 721 720 719 718 716 715 714 712 711 710 708 707 706 704 703 701 700 699
794 794 793 792 791 791 790 788 787 786 786 785 783 782 781 781 780 780 779 778 777 777 776 776 774 773 772 771 770 768 768 767 766 764 763 761 759 758 757 756 755 754 752 751 749 747 746 744 743 741 741 740 739 738 737 736 735 734 733 731 730 729 728 727 726 724 723 722 720 719 718 716 715 714 712 711 710 708 707 706 704 703 701 700 699 697
794 794 793 792 791 790 789 788 787 786 786 784 783 782 781 781 781 780 779 778 777 776 775 774 773 771 771 770 769 768 767 766 766 764 763 761 760 759 758 756 755 753 752 751 749 747 745 743 742 741 740 739 738 738 736 736 734 733 732 731 730 728 727 726 725 723 722 721 719 718 716 715 714 712 711 710 708 707 706 704 703 701 700 698 697 696
794 793 793 792 791 790 789 788 787 786 786 784 783 781 781 781 780 779 778 777 776 776 774 773 772 771 770 770 769 768 767 766 766 764 763 762 761 759 758 756 755 754 752 750 748 747 745 743 741 740 739 739 738 737 736 735 734 732 731 730 728 727 726 725 723 722 721 720 718 717 716 714 713 711 710 708 707 706 704 703 701 700 698 697 695 694
794 793 792 791 790 789 788 787 787 786 786 784 783 781 781 780 779 778 777 777 776 775 775 774 773 772 771 770 769 768 767 767 766 765 764 763 761 759 757 756 755 754 751 749 748 746 744 742 741 740 739 738 737 736 735 734 733 731 730 729 727 726 725 724 722 721 720 718 717 716 714 713 711 710 709 707 706 704 703 701 700 698 697 695 694 692
793 792 791 791 790 788 788 787 786 786 785 784 783 782 781 780 779 778 778 777 777 776 776 775 774 773 771 771 770 769 768 767 766 765 764 763 761 759 757 756 755 753 751 749 747 746 745 742 741 739 738 737 736 735 734 733 732 731 729 728 727 725 724 723 721 720 719 717 716 714 713 712 710 709 707 706 705 703 702 700 699 697 696 694 692 691
793 792 791 790 789 788 787 787 786 786 785 784 783 782 781 780 779 779 779 778 778 777 776 776 775 774 772 771 770 769 768 767 766 765 764 763 761 759 757 756 755 753 751 749 747 745 744 742 741 739 738 737 736 734 733 732 731 730 728 727 726 725 723 722 721 719 718 716 715 713 712 711 709 708 706 705 703 702 701 699 697 696 695 693 691 690
792 791 791 790 789 788 787 786 786 786 785 784 784 782 781 781 780 780 780 779 778 777 777 776 776 774 773 771 770 769 768 767 766 765 764 762 761 759 757 756 754 753 751 749 746 743 742 741 741 739 738 736 735 734 732 731 730 729 727 726 725 724 722 721 720 718 717 715 714 712 711 710 708 707 705 704 702 701 700 698 697 695 693 692 691 689
792 791 790 790 789 788 787 786 786 786 785 784 784 783 782 781 781 781 780 779 778 778 777 776 776 775 773 772 770 769 768 767 766 765 764 762 761 759 757 756 754 753 752 750 746 742 740 739 739 739 738 736 735 733 732 731 729 728 726 725 724 723 721 720 719 717 716 715 713 712 710 709 707 706 704 703 701 700 699 697 696 694 693 691 690 688
791 791 790 790 789 788 787 787 786 786 785 784 784 783 782 782 781 781 780 779 779 778 777 777 776 775 774 773 771 770 768 767 766 765 764 763 761 759 757 756 754 753 753 752 750 746 741 738 736 736 737 736 734 733 732 731 729 728 726 725 723 722 721 720 718 717 715 714 712 711 709 708 706 705 703 702 700 699 698 696 695 694 692 691 689 687
792 791 791 790 789 788 788 787 786 786 785 784 784 783 782 782 781 781 780 779 779 778 777 777 776 775 775 774 773 771 770 768 766 765 764 763 761 759 758 756 755 754 753 753 752 751 747 742 738 736 736 735 734 733 731 731 730 728 726 725 723 721 720 719 718 716 714 713 711 710 708 707 706 704 702 701 699 698 697 696 694 693 692 690 689 687
792 791 791 790 789 789 788 787 786 786 785 784 784 783 782 782 781 781 780 780 779 778 777 777 776 775 774 774 773 772 770 768 766 766 765 763 761 759 758 757 756 754 753 752 752 751 749 746 742 738 736 735 734 733 731 731 729 728 727 725 723 721 720 719 717 716 714 712 710 709 707 706 705 703 701 700 699 697 696 695 694 693 691 690 689 687
793 792 791 790 790 789 788 787 786 786 785 784 783 783 782 782 781 781 780 780 779 778 777 777 776 775 774 773 772 771 770 768 767 766 765 763 762 760 758 757 756 754 753 752 751 750 748 746 744 741 737 735 733 732 731 730 729 728 727 725 724 722 720 718 717 715 714 712 710 708 707 705 704 702 701 699 698 696 695 694 693 692 691 690 689 687
793 792 791 791 790 789 788 787 786 786 785 784 783 783 782 782 781 781 780 780 779 778 778 777 776 775 774 773 772 771 769 768 766 766 765 764 762 760 759 757 756 755 754 752 751 749 747 746 744 742 740 736 733 731 731 730 729 728 726 725 724 722 721 719 717 716 714 712 710 708 707 705 704 702 700 699 697 696 695 693 692 691 690 689 688 687
793 793 792 791 790 789 788 787 786 786 785 784 783 783 782 782 781 781 781 780 779 779 778 777 776 776 775 773 772 771 769 768 766 766 765 764 762 761 759 758 757 756 754 753 751 750 748 746 744 742 741 738 735 732 730 729 728 727 726 725 724 722 721 719 718 716 714 712 710 709 707 705 704 702 700 699 697 696 694 693 691 690 689 688 687 686
794 793 792 791 791 790 788 787 786 786 785 784 784 783 782 782 781 781 781 780 779 779 778 777 776 776 774 773 772 771 769 768 767 766 765 764 762 761 760 758 757 756 755 754 752 750 748 746 744 742 741 739 737 734 731 729 727 726 725 724 723 722 720 719 718 716 715 713 711 709 707 706 704 702 700 698 696 695 693 691 690 689 688 686 685 684
795 794 793 792 791 790 789 788 786 786 785 784 784 783 783 782 781 781 781 780 779 778 778 777 776 775 774 773 772 771 770 768 767 766 765 764 762 761 760 758 757 756 755 754 753 751 749 747 745 743 741 739 738 736 734 731 729 727 725 724 723 722 721 719 718 716 715 713 711 710 708 706 704 702 700 698 696 694 692 691 689 688 686 685 684 683
795 795 794 793 792 791 790 788 787 786 785 785 784 784 783 782 782 781 781 780 779 778 777 776 775 774 773 772 771 771 770 768 767 766 765 763 762 761 759 758 756 755 754 754 752 751 750 748 746 745 742 740 737 736 734 732 731 728 726 724 722 721 720 719 718 716 715 713 711 710 707 706 704 702 701 699 697 695 693 691 690 688 686 685 683 682
796 795 794 793 792 791 791 789 788 786 785 785 785 784 783 782 782 781 781 780 779 778 777 776 775 774 773 772 771 770 769 768 767 766 764 763 761 760 759 757 756 755 753 752 752 751 750 748 747 745 744 741 739 736 734 733 731 730 727 725 722 721 719 719 718 717 715 714 712 710 708 706 704 702 701 699 697 696 694 692 691 689 687 686 684 682
797 796 795 793 792 791 791 790 788 787 786 785 785 784 783 782 781 781 780 779 778 777 776 775 773 772 771 771 770 770 768 767 766 765 764 762 761 760 758 757 756 754 753 752 751 750 749 748 746 745 743 741 740 737 735 733 732 731 729 727 725 722 720 719 718 717 716 714 712 711 709 706 704 702 701 699 697 696 695 693 691 689 688 687 686 684
797 796 795 794 793 792 791 789 788 787 786 786 785 784 783 782 781 781 780 778 777 776 775 774 773 771 770 769 769 768 767 766 766 764 763 762 760 759 758 757 756 754 752 751 750 749 748 747 746 744 743 741 740 738 735 733 732 731 730 728 726 723 720 719 718 717 716 714 712 710 709 707 705 703 701 699 697 695 694 693 691 690 688 687 686 684
798 796 796 794 793 792 791 790 788 787 786 785 784 784 783 782 782 781 780 779 777 776 775 774 773 771 770 769 767 767 766 766 765 764 762 761 760 758 757 756 755 754 752 751 749 747 746 746 744 743 742 741 740 738 736 733 731 731 729 728 726 724 721 719 717 716 715 714 712 711 709 707 705 703 701 699 697 695 693 692 691 690 688 687 686 684
798 797 796 795 793 792 791 790 788 787 786 786 785 784 783 783 782 781 780 779 778 777 776 774 773 771 770 769 767 766 765 764 764 763 762 761 760 758 757 756 754 753 751 750 748 746 745 743 742 741 741 740 739 737 736 734 732 730 729 728 727 726 724 721 719 717 715 713 712 710 709 707 705 703 701 699 697 695 693 691 690 689 688 686 685 684
798 797 796 795 793 792 791 790 789 787 786 786 785 784 784 783 782 782 781 780 778 777 776 775 773 772 770 769 768 766 765 763 762 761 760 760 759 758 756 755 753 752 751 749 748 746 745 743 741 740 739 739 738 737 735 734 732 730 729 728 726 725 724 722 720 718 716 714 712 710 709 707 705 703 701 699 697 695 693 692 690 689 687 686 685 683
798 797 796 795 794 792 791 791 789 788 786 786 786 785 784 784 783 782 781 780 779 778 777 776 774 773 771 770 768 767 765 763 761 760 759 758 757 756 756 754 753 751 750 748 747 746 744 743 741 739 738 737 736 736 735 734 732 731 729 727 726 725 723 721 720 718 716 714 712 710 708 707 705 703 701 699 697 695 693 692 690 689 687 686 684 683
799 798 797 796 794 793 792 791 790 788 787 786 786 786 785 784 783 782 781 781 779 778 777 776 774 773 772 771 770 768 766 765 762 761 759 757 756 755 754 753 752 751 749 747 746 745 743 742 741 739 738 737 736 735 734 733 732 731 729 727 726 724 723 721 720 718 717 715 713 710 708 706 705 703 701 699 697 695 693 691 690 689 687 686 684 682
800 799 797 796 795 794 792 791 790 789 788 787 787 786 785 785 784 783 782 781 780 778 777 776 775 774 773 772 771 770 768 767 765 762 760 758 756 754 753 751 751 749 748 747 746 744 743 741 740 739 738 737 736 735 734 733 732 731 729 728 726 725 723 721 720 718 716 715 712 711 709 707 705 703 701 699 697 695 693 691 689 688 687 685 684 682
800 799 798 797 796 794 793 792 791 790 789 788 787 786 786 785 785 784 782 781 780 779 778 776 775 774 773 772 771 770 769 767 766 763 761 759 757 755 753 751 749 748 746 746 744 743 742 741 740 739 738 737 736 735 734 733 731 731 729 728 726 725 723 721 720 718 716 714 712 710 709 707 706 704 702 700 697 695 693 691 689 687 686 685 684 682
801 800 799 797 796 795 794 793 792 791 790 789 788 787 786 786 785 784 783 782 781 779 778 777 776 775 774 773 771 771 769 767 766 764 762 760 758 756 754 751 749 747 745 744 743 741 741 740 739 738 738 738 737 736 734 732 731 730 729 727 726 725 723 721 720 718 716 714 712 710 708 707 706 704 702 701 698 696 693 691 689 687 686 684 683 681
801 800 799 798 797 796 795 793 792 791 791 790 789 788 787 786 785 784 783 782 781 779 778 777 776 776 775 774 772 771 770 768 766 765 763 761 760 758 756 753 751 749 746 744 742 741 740 739 738 737 737 737 737 736 735 733 731 729 728 727 726 725 723 721 719 717 716 714 712 710 708 706 705 704 702 701 698 696 693 691 689 687 685 683 682 681